Change the Weather History Date:

Sunday, July 15, 2012

  Actual Average Record
Temperature  
Mean Temperature 86 °F 81 °F  
Max Temperature 99 °F 93 °F 110 °F (1936)
Min Temperature 72 °F 70 °F 55 °F (1990)
Degree Days  
Heating Degree Days 0 0  
Month to date heating degree days 0 0  
Since 1 June heating degree days 10 6  
Since 1 July heating degree days 0 0  
Cooling Degree Days 21 16  
Month to date cooling degree days 325 235  
Year to date cooling degree days 1148 700  
Since 1 June cooling degree days 787 564  
Growing Degree Days 36 (Base 50)    
Moisture  
Dew Point 59 °F    
Average Humidity 47    
Maximum Humidity 73    
Minimum Humidity 21    
Precipitation  
Precipitation 0.00 in 0.11 in 2.26 in (1959)
Month to date precipitation 0.08 1.80  
Year to date precipitation 17.60 18.86  
Snow  
Snow 0.00 in 0.00 in 0.00 in (2007)
Month to date snowfall 0.0 0.0  
Since 1 June snowfall 0.0 0.0  
Since 1 July snowfall 0.0 0.0  
Snow Depth 0.00 in    
Sea Level Pressure  
Sea Level Pressure 29.96 in    
Wind  
Wind Speed 10 mph (SSE)    
Max Wind Speed 18 mph    
Max Gust Speed 20 mph    
Visibility 10 miles    
Events      
T = Trace of Precipitation, MM = Missing Value Source: NWS Daily Summary

Daily Weather History Graph

Daily Weather History Graph

Search for Another Location

Airport or City:

Trip Planner

Search our weather history database for the weather conditions in past years. The results will help you decide how hot, cold, wet, or windy it might be!

Date:

Astronomy

Jul. 15, 2012 Rise Set
Actual Time 6:20 AM CDT 8:50 PM CDT
Civil Twilight 5:50 AM CDT 9:20 PM CDT
Nautical Twilight 5:12 AM CDT 9:58 PM CDT
Astronomical Twilight 4:30 AM CDT 10:39 PM CDT
Moon 3:18 AM CDT (7/15) 6:08 PM CDT (7/15)
Length of Visible Light 15h 30m
Length of Day
14h 30m
Waning Crescent, 11% of the Moon is Illuminated
Jul 15
Waning Crescent
Jul 18
New
Jul 26
First Quarter
Aug 1
Full
Aug 9
Last Quarter

Hourly Weather History & Observations

Time (CDT) Temp. Heat Index Dew Point Humidity Pressure Visibility Wind Dir Wind Speed Gust Speed Precip Events Conditions
12:53 AM 80.6 °F 81.8 °F 62.6 °F 54% 30.02 in 10.0 mi South 12.7 mph - N/A   Scattered Clouds
1:53 AM 80.1 °F 81.7 °F 64.0 °F 58% 29.96 in 10.0 mi SSE 10.4 mph - N/A   Scattered Clouds
2:53 AM 77.0 °F - 64.9 °F 66% 29.97 in 10.0 mi SSE 10.4 mph - N/A   Scattered Clouds
3:53 AM 75.0 °F - 64.0 °F 69% 29.97 in 10.0 mi SSE 6.9 mph - N/A   Partly Cloudy
4:53 AM 73.9 °F - 64.0 °F 71% 29.98 in 10.0 mi SSE 6.9 mph - N/A   Partly Cloudy
5:53 AM 72.0 °F - 63.0 °F 73% 29.99 in 10.0 mi SSE 8.1 mph - N/A   Clear
6:53 AM 72.0 °F - 63.0 °F 73% 29.99 in 10.0 mi SSE 8.1 mph - N/A   Clear
7:53 AM 75.0 °F - 63.0 °F 66% 30.01 in 10.0 mi South 10.4 mph - N/A   Partly Cloudy
8:53 AM 81.0 °F 81.9 °F 62.1 °F 52% 30.01 in 10.0 mi South 10.4 mph 26.5 mph N/A   Partly Cloudy
9:53 AM 84.9 °F 85.0 °F 61.0 °F 44% 30.01 in 10.0 mi South 9.2 mph - N/A   Partly Cloudy
10:53 AM 90.0 °F 90.0 °F 61.0 °F 38% 29.99 in 10.0 mi South 9.2 mph - N/A   Partly Cloudy
11:53 AM 93.9 °F 94.0 °F 61.0 °F 33% 29.99 in 10.0 mi SSE 12.7 mph 16.1 mph N/A   Partly Cloudy
12:53 PM 95.0 °F 94.4 °F 59.0 °F 30% 29.98 in 10.0 mi SE 11.5 mph 19.6 mph N/A   Clear
1:53 PM 96.8 °F 95.8 °F 57.2 °F 27% 30.01 in 10.0 mi ESE 11.5 mph 16.1 mph N/A   Partly Cloudy
2:53 PM 97.0 °F 95.3 °F 55.9 °F 25% 29.94 in 10.0 mi SSE 13.8 mph 19.6 mph N/A   Partly Cloudy
3:53 PM 99.0 °F 96.9 °F 54.0 °F 22% 29.92 in 10.0 mi SSE 10.4 mph 19.6 mph N/A   Partly Cloudy
4:53 PM 97.0 °F - 52.0 °F 22% 29.90 in 10.0 mi SSE 8.1 mph 19.6 mph N/A   Partly Cloudy
5:53 PM 96.1 °F - 52.0 °F 22% 29.89 in 10.0 mi SE 8.1 mph - N/A   Scattered Clouds
6:53 PM 96.1 °F - 50.0 °F 21% 29.88 in 10.0 mi SSE 12.7 mph - N/A   Partly Cloudy
7:53 PM 93.0 °F - 52.0 °F 25% 29.89 in 10.0 mi SSE 13.8 mph - N/A   Partly Cloudy
8:53 PM 88.0 °F 85.7 °F 53.1 °F 30% 29.90 in 10.0 mi SE 9.2 mph - N/A   Partly Cloudy
9:53 PM 84.9 °F 83.9 °F 57.0 °F 38% 29.91 in 10.0 mi SE 10.4 mph - N/A   Partly Cloudy
10:53 PM 82.9 °F 83.2 °F 60.1 °F 46% 29.94 in 10.0 mi SSE 11.5 mph - N/A   Partly Cloudy
11:53 PM 81.0 °F 81.9 °F 62.1 °F 52% 29.94 in 10.0 mi SSE 10.4 mph - N/A   Scattered Clouds